Temp
10 10 10 10 10 11 11 12 13 13 13 13 13 13 13 13 14 14 15 15 16 16 16 16 16 16 17 17 17 17 17 17 17 17 18 17 17 16 16 16 15 15 15
9 9 9 10 10 10 11 11 12 13 13 13 13 13 13 13 13 13 14 14 15 15 15 15 15 15 14 16 17 17 17 17 17 17 17 17 17 16 16 16 16 15 15
9 9 9 9 9 10 10 10 11 12 13 12 12 12 12 12 12 13 13 13 13 14 14 15 15 15 15 14 15 16 17 17 17 17 17 17 17 17 17 16 16 15 15
8 8 9 9 9 9 9 10 10 10 12 12 12 12 12 12 12 12 12 12 12 13 13 13 14 14 14 15 15 14 15 16 17 17 17 17 17 17 17 17 17 16 16
7 7 8 7 8 8 9 9 10 9 11 12 12 12 12 12 12 12 12 12 12 12 13 13 13 13 13 14 14 15 14 14 15 17 17 17 17 17 17 17 17 17 16
5 6 6 7 8 8 8 8 9 9 9 12 12 12 12 12 12 12 12 12 12 12 12 13 13 13 13 14 13 14 15 16 15 15 16 17 17 17 17 17 17 16 16
3 3 4 6 7 7 7 8 8 8 9 9 11 10 11 11 11 11 11 11 12 12 12 12 12 12 13 13 13 13 13 14 15 16 17 16 17 17 17 17 17 17 16
3 3 3 4 5 6 6 7 7 8 8 9 9 7 6 8 10 11 11 11 11 11 11 12 12 12 12 12 13 13 13 12 13 13 14 15 17 16 17 17 17 16 16
2 3 3 2 3 5 6 7 7 7 7 8 9 8 4 5 6 10 11 11 11 11 11 11 12 12 12 12 12 12 12 12 12 12 13 13 15 17 17 17 16 16 16
2 2 2 2 3 4 5 6 7 7 8 7 8 8 9 9 5 6 9 10 10 10 10 11 11 12 12 12 11 11 11 11 12 12 12 13 13 14 16 16 17 16 16
2 2 2 2 2 3 4 5 6 6 7 7 8 7 8 7 8 5 6 6 9 10 10 10 11 11 11 11 11 11 11 11 11 11 11 12 12 13 14 15 16 17 17
2 2 2 2 2 2 3 4 6 6 7 7 7 8 7 6 5 5 4 4 5 9 10 10 11 11 11 10 10 10 10 10 10 10 10 10 11 12 12 13 15 15 16
2 2 2 2 2 2 3 3 5 6 6 6 7 7 7 7 8 9 7 6 4 8 9 10 10 10 10 10 10 10 9 9 9 9 9 9 10 10 11 12 13 14 15
2 3 3 2 2 2 2 3 3 4 6 6 6 6 7 8 8 8 8 6 4 3 6 9 10 10 10 10 10 9 9 9 9 8 8 9 9 9 10 11 12 13 14
2 3 4 2 2 2 2 2 3 3 5 5 6 6 6 7 7 8 7 9 7 4 3 7 8 9 9 9 9 9 8 8 8 7 7 8 10 9 10 10 11 12 15
3 2 2 2 2 2 3 2 2 3 3 4 4 5 5 5 6 6 6 7 7 7 5 7 8 9 9 9 9 8 8 8 8 8 8 7 9 9 10 10 12 14 14
3 2 2 2 2 2 3 3 3 3 3 3 3 3 4 4 4 4 5 6 6 6 4 6 7 8 8 8 8 8 8 8 8 8 8 7 8 9 9 11 12 13 14
3 3 3 2 2 2 3 3 3 3 3 2 3 3 3 4 4 5 5 4 5 5 5 3 6 7 8 8 8 8 7 7 7 7 7 6 7 10 10 12 13 14 14
2 3 3 3 3 3 3 3 3 3 3 3 3 3 3 3 4 4 4 4 5 5 5 5 5 6 6 6 6 7 6 6 4 5 5 7 8 10 11 12 12 13 14
2 3 3 3 3 3 3 3 3 3 3 3 3 3 3 3 4 4 4 4 5 5 6 4 5 5 4 5 4 5 5 3 3 5 5 3 8 10 11 11 12 13 13
1 2 2 1 2 3 3 4 4 4 3 3 3 3 3 3 4 4 4 4 4 4 4 4 3 3 2 2 3 4 2 1 2 1 2 3 4 6 8 9 10 11 12
0 1 2 2 1 2 5 4 5 4 3 2 3 3 3 3 4 5 5 5 5 5 5 4 4 3 2 2 2 2 1 1 0 1 -1 1 2 3 5 5 5 5 5
1 0 2 2 2 1 2 4 5 5 3 2 3 3 3 3 4 5 5 3 4 4 4 4 3 3 2 4 2 0 -0 -1 -1 -0 -1 -1 -1 1 4 3 4 3 3
1 1 0 1 2 2 1 0 0 1 2 1 2 2 3 3 4 3 3 2 1 2 3 3 3 4 5 4 2 2 -0 -1 -1 -1 -1 -1 -1 -1 0 2 2 2 2
1 1 1 0 1 2 2 1 0 0 0 0 0 -0 -0 0 0 -0 -0 -1 -1 -0 1 1 1 0 0 -0 0 -0 -1 -1 -1 -1 -1 -1 -1 -1 -1 -1 1 1 1
1 1 1 0 1 1 3 2 1 0 1 1 1 1 1 0 -0 -1 -1 -1 -2 -2 -1 -1 -1 -1 -1 -1 -1 -1 -1 -1 -1 -1 -1 -1 -1 -1 -1 -1 -1 -0 0
Height
786 785 781 780 780 778 776 773 773 772 772 773 772 772 772 772 770 771 772 772 771 770 770 769 770 765 770 770 774 778 781 784 787 789 792 795 798 801 803 805 807 810 813
782 778 775 775 774 774 772 770 771 768 768 768 769 768 769 769 769 769 770 770 769 768 768 768 768 766 751 758 764 773 776 779 782 784 787 790 793 797 800 802 804 806 810
776 774 771 768 767 768 767 766 764 764 763 764 764 764 765 766 767 767 767 766 767 767 766 766 764 765 767 758 756 758 768 771 775 777 781 785 788 791 794 797 800 802 805
770 768 763 762 761 762 761 760 759 759 757 757 759 760 760 761 763 764 764 764 764 764 764 764 762 762 763 764 763 761 763 764 754 766 775 779 783 786 789 792 794 797 800
765 762 758 756 754 752 753 754 754 754 753 752 753 754 756 756 758 760 760 761 760 761 761 761 761 760 760 760 760 763 762 763 761 765 770 774 777 779 783 786 788 791 794
758 754 751 748 747 747 746 747 748 748 750 747 748 748 751 752 754 755 756 757 758 758 758 759 758 758 758 757 757 759 760 762 763 764 765 767 770 773 776 779 782 784 788
750 747 744 741 740 739 739 739 741 742 742 742 742 742 744 747 749 751 751 752 754 754 754 755 755 756 757 756 754 755 757 758 757 759 761 763 762 765 768 771 775 779 782
742 740 737 735 733 732 732 733 733 734 734 736 737 739 743 743 742 746 746 747 749 750 749 750 751 753 753 754 752 751 751 753 754 757 757 757 758 757 757 761 767 770 776
734 731 728 727 725 725 724 725 725 726 728 730 732 734 741 740 740 740 742 742 744 746 747 746 748 748 749 750 750 750 749 749 750 751 752 752 752 753 753 756 756 761 769
726 723 720 718 717 717 715 717 719 720 722 725 728 729 728 730 736 739 737 737 739 742 743 744 744 745 745 745 747 749 748 748 748 748 748 748 748 750 753 753 747 753 762
717 714 712 710 709 709 709 710 712 714 716 719 722 724 725 726 729 732 736 734 735 738 739 741 740 741 742 742 743 745 747 747 747 747 746 746 744 748 749 751 751 746 753
709 705 702 701 701 701 702 704 705 707 709 712 714 717 721 723 725 728 732 730 732 732 734 736 736 737 738 738 739 741 742 743 743 742 742 742 741 740 743 746 745 745 748
703 697 693 692 693 694 696 698 700 702 705 707 709 712 715 717 720 722 724 725 727 728 729 731 732 733 734 735 737 737 738 739 739 739 738 737 737 736 736 737 739 739 743
697 689 683 685 688 689 689 691 695 698 700 701 703 706 708 711 714 716 718 721 725 726 725 725 726 728 729 731 732 734 735 736 735 734 734 733 732 731 730 730 730 730 733
693 684 678 683 685 686 687 688 690 692 695 698 699 702 704 707 708 710 713 714 719 725 724 720 721 723 725 727 728 729 730 730 728 728 727 727 725 723 724 723 723 722 721
693 688 685 684 684 684 684 686 687 689 691 694 696 699 700 703 705 707 709 711 713 714 717 717 717 719 721 723 724 724 724 723 720 720 718 718 716 715 713 714 714 714 716
695 691 688 686 684 684 684 683 684 687 688 690 692 695 696 699 702 704 706 707 709 712 712 713 713 716 717 717 718 718 718 717 714 712 710 707 705 704 704 704 706 707 708
697 694 690 688 686 685 684 683 683 684 685 687 689 691 693 694 697 699 701 704 705 706 708 710 711 713 713 713 713 712 713 711 707 705 701 695 692 690 690 691 693 694 697
700 695 692 689 687 684 683 682 682 682 683 684 686 688 689 691 693 694 696 698 701 703 704 706 706 708 709 709 710 709 708 704 701 700 693 686 680 676 675 679 682 685 689
705 699 695 691 687 684 682 681 681 680 681 682 683 684 686 687 688 689 691 693 695 698 699 702 702 703 705 706 705 704 705 702 698 695 690 682 673 664 664 668 671 673 679
712 706 699 691 686 682 678 677 677 677 678 680 681 682 683 684 685 686 687 688 690 691 694 696 698 699 700 700 700 700 701 702 698 695 690 680 674 667 663 663 665 667 671
719 711 704 696 688 678 669 673 673 672 676 677 678 680 681 681 681 681 681 682 684 686 687 689 690 691 692 693 695 696 699 700 701 697 693 684 683 675 672 668 671 670 672
728 717 710 701 693 684 676 668 669 669 672 676 678 679 679 679 679 678 678 678 680 681 683 685 685 685 686 685 688 692 695 697 698 698 694 692 690 685 680 678 687 679 681
735 727 718 712 703 695 687 679 673 672 675 678 678 679 678 676 676 676 677 679 680 681 680 680 679 679 679 680 684 685 690 695 698 699 696 699 696 690 688 688 696 688 692
742 735 728 720 714 707 701 693 687 686 685 686 684 683 681 679 678 677 678 679 681 682 681 679 678 677 678 679 682 685 692 696 700 702 702 702 702 700 695 698 703 698 700
751 743 737 730 725 719 714 709 703 699 696 695 694 692 690 688 686 685 684 685 686 688 686 685 684 683 685 688 688 691 694 697 700 703 705 705 705 704 707 709 708 707 707
Wind_Speed
38 37 33 30 28 25 26 26 24 21 19 17 15 14 12 13 14 14 14 13 11 11 10 8 15 16 28 25 24 24 24 27 26 26 25 25 23 22 22 22 21 19 19
31 35 33 33 29 28 28 27 26 14 13 13 13 13 12 12 14 15 14 13 12 11 10 9 10 12 17 12 13 25 23 24 27 29 29 28 26 25 24 24 22 21 21
35 33 33 34 29 27 24 26 26 29 23 16 15 14 15 16 17 17 16 15 13 12 12 13 14 13 11 12 12 14 21 20 29 28 29 31 31 28 28 27 25 23 23
28 32 37 31 27 26 25 26 23 26 21 20 20 18 14 15 15 16 17 17 15 16 17 18 17 17 16 13 10 11 9 21 25 22 28 29 34 33 31 30 27 27 25
29 32 32 34 38 34 27 24 27 24 31 24 18 17 17 15 15 16 16 13 14 17 19 20 18 18 19 17 15 13 13 16 15 18 26 31 34 36 35 33 32 29 29
33 33 35 36 34 34 29 26 27 28 24 24 24 21 19 20 21 22 22 22 21 22 22 19 17 18 12 13 12 13 14 16 18 17 16 26 32 37 38 37 35 34 32
31 31 27 30 35 33 34 33 30 29 29 26 20 20 20 21 22 24 22 20 20 19 20 21 17 13 12 9 8 8 8 10 13 18 22 20 26 33 36 38 39 38 37
29 29 25 25 29 31 30 34 32 28 27 22 15 4 2 9 19 20 17 16 19 22 16 21 19 13 10 12 14 13 13 11 10 12 14 19 24 25 42 39 39 39 40
30 28 30 29 28 28 29 31 30 20 14 15 21 8 2 5 1 14 17 18 21 14 15 14 12 11 10 11 12 12 11 13 15 15 15 16 19 25 26 30 43 40 40
30 30 30 28 28 25 30 29 25 22 19 17 19 22 23 11 4 2 9 15 14 17 18 14 14 14 11 11 9 9 11 11 14 18 19 20 20 20 21 23 23 41 43
29 30 29 27 27 27 24 27 28 27 27 23 23 16 15 17 15 3 4 5 15 19 20 18 12 12 14 11 8 9 12 14 17 18 19 21 22 22 20 20 21 33 43
27 28 28 26 26 25 25 26 27 25 24 26 24 25 19 7 6 3 3 3 5 16 17 18 19 9 6 5 10 15 18 18 19 19 19 21 24 25 24 23 27 26 31
26 26 27 24 23 21 23 19 23 27 28 30 25 22 21 21 22 21 15 6 4 12 11 13 14 15 11 11 15 17 16 14 16 18 20 22 25 27 28 26 29 31 26
29 33 28 23 20 20 13 16 19 19 22 24 25 26 25 25 24 22 17 8 2 2 5 21 24 20 17 17 18 18 21 21 23 23 24 26 28 28 30 31 31 32 33
31 30 10 10 12 13 14 13 17 18 18 15 18 17 16 22 18 15 22 20 10 3 4 9 8 16 18 17 18 20 22 25 26 25 25 29 33 34 32 32 34 35 39
23 17 9 6 7 9 10 14 16 15 14 16 16 17 10 6 5 10 13 18 21 13 6 10 14 16 14 17 17 19 22 24 26 31 30 30 33 36 37 37 37 38 40
20 16 11 7 3 5 8 9 8 15 12 16 16 13 23 23 15 9 5 6 10 13 5 4 11 13 18 19 20 19 19 24 30 33 34 35 34 37 38 41 42 42 39
21 17 11 6 5 5 6 7 8 9 11 13 15 18 16 17 22 22 21 17 12 9 8 4 13 20 22 18 17 21 23 26 29 33 35 34 38 39 40 45 45 46 41
31 20 14 10 8 7 7 8 9 10 14 11 12 14 15 16 19 16 20 20 22 18 11 13 10 15 16 14 14 17 22 25 23 25 26 31 36 39 40 44 46 47 43
34 30 21 16 13 13 11 10 9 11 12 11 15 16 16 17 17 17 20 20 20 22 16 20 18 21 17 16 14 13 19 15 16 16 11 16 9 17 29 32 36 40 38
33 33 32 31 24 20 18 13 11 10 10 10 11 12 14 15 16 18 21 22 21 22 21 20 13 12 11 11 11 11 9 5 6 11 13 17 19 12 13 11 15 21 29
38 32 36 27 29 25 13 14 17 15 9 9 9 9 14 14 15 18 20 22 22 22 20 17 12 11 15 13 12 12 10 4 1 8 11 21 20 22 28 30 29 35 33
36 38 33 34 32 33 28 17 12 12 14 5 5 5 6 11 12 12 11 4 4 9 11 15 17 24 20 26 20 15 12 5 3 6 9 17 19 19 24 29 23 31 30
32 33 34 38 36 40 37 35 34 32 21 17 4 4 6 5 6 4 5 4 6 5 7 13 20 25 26 19 20 21 19 19 15 12 14 8 21 23 25 29 19 25 22
32 33 34 33 36 38 41 39 34 31 28 27 28 25 23 21 16 15 18 21 19 17 14 10 7 6 8 12 19 27 21 16 5 6 13 10 13 20 26 22 19 23 21
31 31 32 36 32 31 38 36 31 32 27 24 26 28 27 27 26 28 29 25 25 24 28 28 28 27 25 21 18 18 17 14 8 4 7 5 5 4 5 16 14 13 14
Wind_Direction
299 300 300 300 302 303 301 302 279 275 264 260 269 283 296 301 300 312 317 315 303 301 316 310 291 269 224 219 217 215 214 213 211 211 209 208 206 206 202 202 200 200 202
295 297 298 294 291 300 301 296 284 267 261 258 273 277 283 301 304 304 318 322 314 298 299 312 311 323 323 276 226 223 222 224 220 217 214 214 214 208 208 207 207 205 207
292 289 291 296 289 293 292 302 290 266 255 259 259 262 273 290 294 296 300 312 313 310 306 302 299 313 309 326 262 274 261 249 227 221 221 218 217 215 214 214 212 212 211
288 289 286 281 282 289 295 289 296 272 254 253 253 259 267 276 280 283 291 294 303 307 306 311 307 307 307 304 295 275 282 274 265 223 228 226 223 221 218 220 220 215 215
292 287 278 284 285 286 283 282 281 294 265 252 246 245 257 261 269 276 280 283 295 300 301 304 303 305 298 292 290 282 280 279 301 261 241 232 229 226 224 224 225 223 218
291 282 276 277 278 279 271 273 279 277 271 244 243 246 252 260 264 268 273 277 286 293 295 293 291 305 305 294 288 288 280 272 274 280 277 245 234 230 228 229 228 226 224
296 289 286 278 274 268 273 270 269 274 274 258 236 239 250 259 263 266 264 268 284 287 285 284 294 275 284 308 304 311 324 295 278 283 275 280 251 234 228 229 229 229 228
287 283 281 280 270 262 257 266 262 255 262 265 228 176 233 261 248 250 255 269 276 285 290 278 272 258 283 299 301 305 304 314 319 297 296 285 276 261 237 226 230 231 229
289 279 278 275 273 266 258 263 255 228 238 259 247 208 125 224 196 242 247 256 270 263 299 305 264 268 285 306 312 307 309 307 306 310 311 304 283 270 274 253 234 227 232
288 284 277 267 268 267 261 257 249 248 246 247 261 244 244 239 187 258 239 234 250 278 295 291 279 287 285 306 299 311 319 316 310 303 301 301 297 295 278 276 276 232 232
287 283 279 267 264 260 257 251 248 246 253 243 243 247 243 240 235 167 236 263 253 266 272 278 287 271 285 289 302 311 315 306 306 302 299 293 291 291 289 277 265 253 234
289 280 273 269 259 257 251 253 255 247 244 241 241 246 240 215 194 167 223 229 212 265 266 272 277 265 259 284 302 308 307 303 300 295 294 293 290 290 287 280 273 271 266
301 290 274 262 258 256 251 248 246 247 249 248 240 239 245 250 250 235 219 235 216 250 263 257 268 279 278 288 301 306 303 304 299 296 295 291 288 286 283 280 275 271 276
308 302 280 250 266 254 275 231 236 242 248 242 239 243 246 247 246 237 230 187 249 250 244 267 275 275 279 288 300 299 293 293 295 294 290 289 286 282 279 274 273 271 269
325 343 309 250 273 260 257 261 232 231 233 241 238 240 242 241 246 249 248 227 208 212 252 263 259 278 275 280 291 300 296 296 297 296 290 283 281 277 273 268 267 266 267
345 2 354 322 291 256 261 250 256 228 224 226 234 239 227 227 211 224 241 244 237 213 241 243 257 267 266 278 283 291 296 294 297 299 294 285 276 272 268 264 259 256 258
6 1 1 345 310 284 276 267 234 243 229 223 225 242 240 237 257 254 265 252 238 243 252 264 242 254 260 270 282 289 291 293 295 294 293 289 279 269 263 257 255 251 253
6 1 357 351 330 312 293 265 249 228 223 232 229 231 239 232 237 250 251 261 264 258 269 247 270 258 254 263 276 288 292 292 293 294 295 294 283 271 262 252 249 246 250
6 6 358 345 333 314 288 274 257 247 242 229 232 232 228 230 240 241 247 242 242 249 254 253 259 274 255 248 262 282 297 296 299 300 294 291 285 274 260 250 247 243 245
10 14 8 351 331 311 298 285 272 265 244 241 233 235 235 233 232 231 232 232 237 237 236 257 252 264 250 246 256 273 282 291 314 308 327 341 333 280 247 245 243 242 244
12 19 18 14 1 330 290 273 259 249 235 245 243 239 235 235 239 239 232 232 231 226 215 220 215 211 209 216 230 250 248 262 25 6 7 37 39 86 97 152 191 189 180
12 16 18 11 9 1 3 248 260 232 231 237 235 241 240 252 255 246 236 232 235 228 226 216 219 228 236 226 231 216 200 187 273 45 15 42 53 58 84 88 103 112 112
16 13 19 20 24 28 23 24 264 252 192 210 265 256 263 261 265 264 270 118 176 211 234 246 236 234 237 248 225 192 189 163 133 77 55 42 34 50 81 89 88 100 106
17 16 17 27 32 36 41 49 60 67 79 66 66 42 29 322 230 212 158 111 67 22 279 256 251 255 255 248 218 206 170 131 107 101 92 68 41 42 66 84 86 89 93
18 20 22 22 34 41 44 46 49 56 61 64 67 67 70 69 78 97 108 94 80 67 65 60 70 93 140 169 179 151 131 125 105 72 81 84 74 56 62 66 76 83 86
22 20 24 29 29 38 47 48 47 51 52 58 64 67 71 74 75 81 79 77 72 66 76 78 80 85 92 93 107 119 121 105 107 76 58 76 57 50 49 64 74 87 92